Weather History for Tillamook, OR

Change the Weather History Date:

Saturday, October 13, 2012

  Actual Average (KMMV) Record (KMMV)
Temperature  
Mean Temperature 58 °F 52 °F  
Max Temperature 60 °F 64 °F 80 °F (1939)
Min Temperature 55 °F 41 °F 27 °F (1970)
Degree Days  
Heating Degree Days 8 12  
Month to date heating degree days 134  
Since 1 July heating degree days 350  
Cooling Degree Days 0 0  
Month to date cooling degree days 0  
Year to date cooling degree days 214  
Growing Degree Days 8 (Base 50)    
Moisture  
Dew Point 57 °F    
Average Humidity 95    
Maximum Humidity 100    
Minimum Humidity 88    
Precipitation  
Precipitation 0.10 in 0.10 in 0.55 in (1962)
Month to date precipitation 1.00  
Year to date precipitation 24.71  
Snow  
Snow 0.00 in - - ()
Month to date snowfall  
Since 1 July snowfall  
Since 1 September snowfall  
Snow Depth -    
Sea Level Pressure  
Sea Level Pressure 30.18 in    
Wind  
Wind Speed 4 mph (South)    
Max Wind Speed 12 mph    
Max Gust Speed -    
T = Trace of Precipitation, MM = Missing Value Source: NWS Daily Summary

Daily Weather History Graph

Daily Weather History Graph

Search for Another Location

Airport:

Trip Planner

Search our weather history database for the weather conditions in past years. The results will help you decide how hot, cold, wet, or windy it might be!

Date:

Astronomy

Oct. 13, 2012 Rise Set
Actual Time 8:29 AM MDT 7:32 PM MDT
Civil Twilight 7:59 AM MDT 8:02 PM MDT
Nautical Twilight 7:25 AM MDT 8:36 PM MDT
Astronomical Twilight 6:51 AM MDT 9:10 PM MDT
Moon 6:21 AM MDT (10/13) 6:21 PM MDT (10/13)
Length of Visible Light 12h 02m
Length of Day
11h 02m
Waning Crescent, 4% of the Moon is Illuminated
Oct 13
Waning Crescent
Oct 15
New
Oct 21
First Quarter
Oct 29
Full
Nov 6
Last Quarter

Hourly Weather History & Observations

Time (MDT) Temp. Dew Point Humidity Pressure Visibility Wind Dir Wind Speed Gust Speed Precip Events Conditions
12:35 AM 55.4 °F 55.4 °F 100% 30.07 in - South 8.1 mph - N/A   Unknown
12:55 AM 55.4 °F 55.4 °F 100% 30.08 in - South 8.1 mph - N/A   Unknown
1:15 AM 55.4 °F 55.4 °F 100% 30.08 in - South 6.9 mph - N/A   Unknown
1:35 AM 57.2 °F 55.4 °F 94% 30.09 in - South 4.6 mph - N/A   Overcast
1:55 AM 57.2 °F 55.4 °F 94% 30.10 in - Calm Calm - N/A   Overcast
2:15 AM 57.2 °F 55.4 °F 94% 30.10 in - South 3.5 mph - N/A   Overcast
2:35 AM 57.2 °F 55.4 °F 94% 30.11 in - Calm Calm - N/A   Unknown
2:55 AM 57.2 °F 55.4 °F 94% 30.11 in - Calm Calm - N/A   Unknown
3:15 AM 57.2 °F 55.4 °F 94% 30.12 in - Calm Calm - 0.01 in   Unknown
3:35 AM 57.2 °F 55.4 °F 94% 30.13 in - Calm Calm - 0.01 in   Overcast
3:55 AM 57.2 °F 57.2 °F 100% 30.13 in - Calm Calm - 0.02 in   Overcast
4:15 AM 57.2 °F 57.2 °F 100% 30.14 in - Calm Calm - N/A   Unknown
4:35 AM 57.2 °F 57.2 °F 100% 30.14 in - Calm Calm - N/A   Unknown
4:55 AM 57.2 °F 57.2 °F 100% 30.13 in - SSE 4.6 mph - N/A   Overcast
5:15 AM 57.2 °F 57.2 °F 100% 30.14 in - South 4.6 mph - N/A   Overcast
5:35 AM 57.2 °F 55.4 °F 94% 30.15 in - South 5.8 mph - N/A   Overcast
5:55 AM 57.2 °F 55.4 °F 94% 30.14 in - South 5.8 mph - N/A   Overcast
6:15 AM 57.2 °F 55.4 °F 94% 30.14 in - SSE 8.1 mph - N/A   Overcast
6:35 AM 57.2 °F 55.4 °F 94% 30.15 in - South 5.8 mph - N/A   Overcast
6:55 AM 57.2 °F 55.4 °F 94% 30.16 in - SW 3.5 mph - N/A   Overcast
7:15 AM 57.2 °F 55.4 °F 94% 30.16 in - South 4.6 mph - N/A   Overcast
7:55 AM 57.2 °F 57.2 °F 100% 30.16 in - SSE 6.9 mph - N/A   Overcast
8:35 AM 57.2 °F 57.2 °F 100% 30.17 in - Calm Calm - N/A   Overcast
8:55 AM 57.2 °F 57.2 °F 100% 30.19 in - Calm Calm - N/A   Overcast
9:15 AM 57.2 °F 57.2 °F 100% 30.19 in - Calm Calm - 0.01 in   Overcast
9:35 AM 57.2 °F 57.2 °F 100% 30.20 in - Calm Calm - 0.02 in   Overcast
9:55 AM 57.2 °F 57.2 °F 100% 30.21 in - Calm Calm - 0.04 in   Overcast
10:15 AM 57.2 °F 57.2 °F 100% 30.21 in - ENE 3.5 mph - N/A   Unknown
10:35 AM 57.2 °F 57.2 °F 100% 30.19 in - SE 4.6 mph - 0.02 in   Unknown
10:55 AM 59.0 °F 59.0 °F 100% 30.18 in - SSE 11.5 mph - 0.03 in   Unknown
11:35 AM 59.0 °F 59.0 °F 100% 30.18 in - South 10.4 mph - N/A   Overcast
11:55 AM 60.8 °F 57.2 °F 88% 30.19 in - South 8.1 mph - N/A   Unknown
12:15 PM 60.8 °F 57.2 °F 88% 30.21 in - Calm Calm - N/A   Unknown
12:35 PM 60.8 °F 57.2 °F 88% 30.22 in - Calm Calm - N/A   Overcast
12:55 PM 60.8 °F 57.2 °F 88% 30.22 in - Calm Calm - N/A   Overcast
1:15 PM 60.8 °F 57.2 °F 88% 30.22 in - Calm Calm - N/A   Overcast
1:35 PM 60.8 °F 57.2 °F 88% 30.22 in - Calm Calm - N/A   Overcast
1:55 PM 60.8 °F 59.0 °F 94% 30.23 in - Calm Calm - N/A   Unknown
2:15 PM 60.8 °F 59.0 °F 94% 30.23 in - Calm Calm - N/A   Unknown
2:35 PM 60.8 °F 59.0 °F 94% 30.23 in - Calm Calm - N/A   Unknown
2:55 PM 60.8 °F 59.0 °F 94% 30.23 in - SE 3.5 mph - N/A   Unknown
3:15 PM 60.8 °F 59.0 °F 94% 30.22 in - Calm Calm - N/A   Unknown
3:35 PM 60.8 °F 59.0 °F 94% 30.23 in - Calm Calm - N/A   Overcast
3:55 PM 60.8 °F 59.0 °F 94% 30.22 in - Calm Calm - N/A   Overcast
4:15 PM 60.8 °F 60.8 °F 100% 30.21 in - SSE 6.9 mph - 0.01 in   Unknown
4:35 PM 60.8 °F 59.0 °F 94% 30.21 in - South 9.2 mph - 0.01 in   Overcast
4:55 PM 60.8 °F 59.0 °F 94% 30.22 in - Calm Calm - 0.01 in   Overcast
5:15 PM 60.8 °F 59.0 °F 94% 30.23 in - NNW 5.8 mph - N/A   Overcast
5:35 PM 60.8 °F 60.8 °F 100% 30.22 in - Calm Calm - N/A   Unknown
6:35 PM 60.8 °F 59.0 °F 94% 30.21 in - Calm Calm - N/A   Overcast
6:55 PM 60.8 °F 59.0 °F 94% 30.21 in - Calm Calm - N/A   Overcast
8:15 PM 60.8 °F 57.2 °F 88% 30.20 in - SW 3.5 mph - N/A   Overcast
8:35 PM 60.8 °F 57.2 °F 88% 30.20 in - Calm Calm - N/A   Overcast
8:55 PM 60.8 °F 59.0 °F 94% 30.19 in - Calm Calm - N/A   Overcast
9:15 PM 60.8 °F 57.2 °F 88% 30.19 in - Calm Calm - N/A   Overcast
9:55 PM 60.8 °F 59.0 °F 94% 30.20 in - SSW 3.5 mph - N/A   Overcast
10:15 PM 60.8 °F 59.0 °F 94% 30.20 in - SSE 10.4 mph - N/A   Overcast
10:35 PM 60.8 °F 57.2 °F 88% 30.18 in - SSE 5.8 mph - N/A   Overcast
11:15 PM 60.8 °F 59.0 °F 94% 30.17 in - Calm Calm - N/A   Overcast
11:35 PM 59.0 °F 59.0 °F 100% 30.16 in - Calm Calm - N/A   Overcast
11:55 PM 59.0 °F 59.0 °F 100% 30.17 in - WNW 3.5 mph - N/A   Overcast